Regional Weather Roundup
Issued by NWS

Home | Current Version | Previous Version | Text Only | Print | Product List | Glossary Off
Versions: 1 2 3 4 5 6 7 8 9 10 11 12 13 14 15 16 17 18 19 20 21 22 23 24 25 26 27

000
ASUS45 KBOI 150810
RWRID

IDAHO REGIONAL WEATHER ROUNDUP
NATIONAL WEATHER SERVICE BOISE ID
100 AM MST MON JAN 15 2018

NOTE: "FAIR" INDICATES FEW OR NO CLOUDS BELOW 12000 FEET
WITH NO SIGNIFICANT WEATHER AND/OR OBSTRUCTIONS TO VISIBILITY

IDZ012-014-150900-
SOUTHWEST IDAHO


CITY           SKY/WX    TMP DP  RH WIND       PRES   REMARKS
BOISE          CLEAR     37  30  75 SE9       30.32F WCI  30
CALDWELL       NOT AVBL
MOUNTAIN HOME  CLEAR     31  31 100 E6        30.34F WCI  25
$$

IDZ016-017-150900-
SOUTHCENTRAL IDAHO


CITY           SKY/WX    TMP DP  RH WIND       PRES   REMARKS
BURLEY         PTCLDY    32  28  85 N9        30.31F WCI  24
JEROME         PTCLDY    32  28  85 NE15      30.32F WCI  22
TWIN FALLS     CLEAR     29  29 100 E8        30.32F WCI  21
$$

IDZ019>023-150900-
SOUTHEAST IDAHO


CITY           SKY/WX    TMP DP  RH WIND       PRES   REMARKS
IDAHO FALLS    CLEAR     26  25  96 N5        30.37F WCI  20
POCATELLO      CLEAR     27  25  92 E7        30.36F WCI  19
REXBURG        CLEAR     19  17  92 E3        30.38S
$$

IDZ006-010-011-018-031-032-150900-
CENTRAL IDAHO MOUNTAINS


CITY           SKY/WX    TMP DP  RH WIND       PRES   REMARKS
MCCALL         FOG       23  20  88 CALM      30.29F VSB 1/4
HAILEY         PTCLDY    28  23  80 NW7       30.35F WCI  21
STANLEY          N/A     10   5  80 CALM      30.40S
SALMON         CLOUDY    33  28  81 NE3       30.45F
CHALLIS        PTCLDY    25  21  85 N3        30.40F
$$

IDZ002-004-006-007-026-150900-
NORTHERN IDAHO


CITY           SKY/WX    TMP DP  RH WIND       PRES   REMARKS
LEWISTON       CLEAR     38  37  97 CALM      30.28F
LOWELL           N/A     33  33 100 CALM      30.38F
COEUR D`ALENE  CLEAR     36  32  85 N18       30.33F WCI  26
MULLAN PASS    FOG       29  28  96 SE5       30.32S VSB 1/2 WCI  24
$$




USA.gov is the U.S. government's official web portal to all federal, state and local government web resources and services.